Météo par heure à Alice Springs

Ce jour, 15 Mai, Samedi

Heure Température Précipitation Vent Pression Humidité
00:00 +11°C° 0 mm 4 m/s 713 mmHg 71%
01:00 +11°C° 0 mm 4 m/s 713 mmHg 72%
02:00 +9°C° 0 mm 5 m/s 712 mmHg 73%
03:00 +9°C° 0 mm 5 m/s 712 mmHg 75%
04:00 +8°C° 0 mm 5 m/s 713 mmHg 75%
05:00 +8°C° 0 mm 5 m/s 713 mmHg 74%
06:00 +7°C° 0 mm 4 m/s 713 mmHg 74%
07:00 +9°C° 0 mm 6 m/s 714 mmHg 64%
08:00 +11°C° 0 mm 7 m/s 714 mmHg 53%
09:00 +12°C° 0 mm 8 m/s 714 mmHg 43%
10:00 +15°C° 0 mm 8 m/s 714 mmHg 38%
11:00 +16°C° 0 mm 8 m/s 714 mmHg 34%
12:00 +18°C° 0 mm 8 m/s 714 mmHg 29%
13:00 +18°C° 0 mm 9 m/s 713 mmHg 29%
14:00 +19°C° 0 mm 9 m/s 713 mmHg 28%
15:00 +20°C° 0 mm 8 m/s 712 mmHg 27%
16:00 +18°C° 0 mm 7 m/s 712 mmHg 31%
17:00 +16°C° 0 mm 6 m/s 713 mmHg 36%
18:00 +14°C° 0 mm 5 m/s 713 mmHg 40%
19:00 +13°C° 0 mm 5 m/s 713 mmHg 44%
20:00 +13°C° 0 mm 5 m/s 713 mmHg 48%
21:00 +12°C° 0 mm 5 m/s 714 mmHg 52%
22:00 +10°C° 0 mm 5 m/s 714 mmHg 55%
23:00 +10°C° 0 mm 5 m/s 714 mmHg 58%

Demain, 16 Mai, Dimanche

Heure Température Précipitation Vent Pression Humidité
00:00 +9°C° 0 mm 5 m/s 713 mmHg 60%
01:00 +9°C° 0 mm 5 m/s 713 mmHg 62%
02:00 +8°C° 0 mm 4 m/s 713 mmHg 63%
03:00 +8°C° 0 mm 4 m/s 713 mmHg 65%
04:00 +8°C° 0 mm 4 m/s 713 mmHg 68%
05:00 +7°C° 0 mm 4 m/s 713 mmHg 70%
06:00 +7°C° 0 mm 4 m/s 714 mmHg 73%
07:00 +9°C° 0 mm 5 m/s 714 mmHg 66%
08:00 +10°C° 0 mm 7 m/s 715 mmHg 60%
09:00 +12°C° 0 mm 8 m/s 715 mmHg 53%
10:00 +15°C° 0 mm 8 m/s 715 mmHg 46%
11:00 +16°C° 0 mm 8 m/s 714 mmHg 39%
12:00 +18°C° 0 mm 8 m/s 714 mmHg 32%
13:00 +20°C° 0 mm 8 m/s 714 mmHg 30%
14:00 +20°C° 0 mm 8 m/s 713 mmHg 28%
15:00 +21°C° 0 mm 7 m/s 713 mmHg 26%
16:00 +18°C° 0 mm 7 m/s 713 mmHg 28%
17:00 +16°C° 0 mm 6 m/s 713 mmHg 31%
18:00 +14°C° 0 mm 5 m/s 713 mmHg 34%
19:00 +13°C° 0 mm 5 m/s 714 mmHg 36%
20:00 +12°C° 0 mm 5 m/s 714 mmHg 37%
21:00 +11°C° 0 mm 4 m/s 714 mmHg 39%
22:00 +11°C° 0 mm 4 m/s 714 mmHg 41%
23:00 +10°C° 0 mm 4 m/s 714 mmHg 43%

Après-demain, 17 Mai, Lundi

Heure Température Précipitation Vent Pression Humidité
00:00 +8°C° 0 mm 4 m/s 714 mmHg 44%
01:00 +8°C° 0 mm 4 m/s 714 mmHg 46%
02:00 +7°C° 0 mm 4 m/s 714 mmHg 48%
03:00 +7°C° 0 mm 4 m/s 713 mmHg 50%
04:00 +6°C° 0 mm 4 m/s 714 mmHg 51%
05:00 +6°C° 0 mm 4 m/s 714 mmHg 51%
06:00 +5°C° 0 mm 3 m/s 714 mmHg 52%
07:00 +7°C° 0 mm 5 m/s 714 mmHg 45%
08:00 +9°C° 0 mm 6 m/s 715 mmHg 38%
09:00 +11°C° 0 mm 8 m/s 715 mmHg 31%
10:00 +13°C° 0 mm 8 m/s 715 mmHg 27%
11:00 +16°C° 0 mm 8 m/s 715 mmHg 23%
12:00 +18°C° 0 mm 9 m/s 714 mmHg 19%
13:00 +18°C° 0 mm 9 m/s 714 mmHg 18%
14:00 +19°C° 0 mm 9 m/s 713 mmHg 17%
15:00 +19°C° 0 mm 9 m/s 713 mmHg 15%
16:00 +17°C° 0 mm 8 m/s 713 mmHg 18%
17:00 +16°C° 0 mm 7 m/s 713 mmHg 20%
18:00 +14°C° 0 mm 5 m/s 713 mmHg 23%
19:00 +13°C° 0 mm 5 m/s 714 mmHg 25%
20:00 +10°C° 0 mm 5 m/s 714 mmHg 27%
21:00 +10°C° 0 mm 4 m/s 714 mmHg 29%
22:00 +10°C° 0 mm 4 m/s 714 mmHg 30%
23:00 +8°C° 0 mm 4 m/s 714 mmHg 31%

18 Mai, Mardi

Heure Température Précipitation Vent Pression Humidité
00:00 +7°C° 0 mm 4 m/s 714 mmHg 32%
01:00 +8°C° 0 mm 3 m/s 714 mmHg 33%
02:00 +7°C° 0 mm 3 m/s 714 mmHg 35%
03:00 +7°C° 0 mm 3 m/s 714 mmHg 36%
04:00 +5°C° 0 mm 3 m/s 714 mmHg 38%
05:00 +5°C° 0 mm 3 m/s 714 mmHg 39%
06:00 +4°C° 0 mm 3 m/s 714 mmHg 41%
07:00 +7°C° 0 mm 4 m/s 714 mmHg 36%
08:00 +9°C° 0 mm 5 m/s 715 mmHg 32%
09:00 +11°C° 0 mm 6 m/s 715 mmHg 27%
10:00 +14°C° 0 mm 6 m/s 715 mmHg 24%
11:00 +16°C° 0 mm 7 m/s 714 mmHg 21%
12:00 +20°C° 0 mm 8 m/s 714 mmHg 17%
13:00 +20°C° 0 mm 7 m/s 713 mmHg 16%
14:00 +21°C° 0 mm 7 m/s 713 mmHg 15%
15:00 +22°C° 0 mm 7 m/s 712 mmHg 14%
16:00 +20°C° 0 mm 6 m/s 713 mmHg 16%
17:00 +17°C° 0 mm 5 m/s 713 mmHg 19%
18:00 +15°C° 0 mm 5 m/s 713 mmHg 21%
19:00 +14°C° 0 mm 4 m/s 713 mmHg 23%
20:00 +13°C° 0 mm 4 m/s 713 mmHg 25%
21:00 +12°C° 0 mm 4 m/s 714 mmHg 27%
22:00 +11°C° 0 mm 4 m/s 714 mmHg 28%
23:00 +11°C° 0 mm 3 m/s 713 mmHg 30%

19 Mai, Mercredi

Heure Température Précipitation Vent Pression Humidité
00:00 +10°C° 0 mm 3 m/s 713 mmHg 31%
01:00 +10°C° 0 mm 3 m/s 713 mmHg 33%
02:00 +9°C° 0 mm 3 m/s 713 mmHg 35%
03:00 +8°C° 0 mm 2 m/s 713 mmHg 37%
04:00 +8°C° 0 mm 2 m/s 713 mmHg 38%
05:00 +8°C° 0 mm 2 m/s 713 mmHg 39%
06:00 +8°C° 0 mm 2 m/s 713 mmHg 40%
07:00 +10°C° 0 mm 3 m/s 714 mmHg 35%
08:00 +12°C° 0 mm 4 m/s 714 mmHg 30%
09:00 +15°C° 0 mm 5 m/s 715 mmHg 25%
10:00 +17°C° 0 mm 5 m/s 714 mmHg 22%
11:00 +20°C° 0 mm 6 m/s 714 mmHg 20%
12:00 +22°C° 0 mm 7 m/s 713 mmHg 17%
13:00 +22°C° 0 mm 7 m/s 713 mmHg 16%
14:00 +23°C° 0 mm 7 m/s 712 mmHg 15%
15:00 +23°C° 0 mm 6 m/s 712 mmHg 14%
16:00 +21°C° 0 mm 6 m/s 712 mmHg 16%
17:00 +19°C° 0 mm 5 m/s 712 mmHg 19%
18:00 +17°C° 0 mm 4 m/s 712 mmHg 21%
19:00 +15°C° 0 mm 4 m/s 713 mmHg 23%
20:00 +14°C° 0 mm 4 m/s 713 mmHg 25%
21:00 +13°C° 0 mm 4 m/s 713 mmHg 26%
22:00 +13°C° 0 mm 3 m/s 713 mmHg 28%
23:00 +12°C° 0 mm 3 m/s 713 mmHg 30%

20 Mai, Jeudi

Heure Température Précipitation Vent Pression Humidité
00:00 +12°C° 0 mm 2 m/s 713 mmHg 32%
01:00 +12°C° 0 mm 2 m/s 713 mmHg 34%
02:00 +11°C° 0 mm 3 m/s 712 mmHg 37%
03:00 +10°C° 0 mm 3 m/s 712 mmHg 39%
04:00 +10°C° 0 mm 2 m/s 712 mmHg 40%
05:00 +10°C° 0 mm 2 m/s 713 mmHg 42%
06:00 +10°C° 0 mm 2 m/s 713 mmHg 44%
07:00 +12°C° 0 mm 3 m/s 713 mmHg 39%
08:00 +14°C° 0 mm 4 m/s 714 mmHg 34%
09:00 +17°C° 0 mm 5 m/s 714 mmHg 30%
10:00 +19°C° 0 mm 5 m/s 714 mmHg 28%
11:00 +21°C° 0 mm 6 m/s 714 mmHg 27%
12:00 +23°C° 0 mm 6 m/s 713 mmHg 26%
13:00 +24°C° 0 mm 6 m/s 713 mmHg 25%
14:00 +24°C° 0 mm 6 m/s 712 mmHg 24%
15:00 +24°C° 0 mm 6 m/s 712 mmHg 23%
16:00 +23°C° 0 mm 6 m/s 712 mmHg 26%
17:00 +21°C° 0 mm 5 m/s 712 mmHg 30%
18:00 +19°C° 0 mm 4 m/s 712 mmHg 33%
19:00 +18°C° 0 mm 4 m/s 713 mmHg 35%
20:00 +17°C° 0 mm 4 m/s 713 mmHg 38%
21:00 +16°C° 0 mm 3 m/s 713 mmHg 40%
22:00 +14°C° 0 mm 3 m/s 713 mmHg 41%
23:00 +13°C° 0 mm 3 m/s 713 mmHg 43%
Voir plus

Nous avons besoin de votre consentement

Meteoprog et ses fournisseurs de services peuvent stocker et accéder à des données personnelles telles que des cookies, des identifiants d'appareils ou d'autres technologies similaires sur votre appareil et traiter ces données pour personnaliser le contenu et les publicités, ainsi que pour fournir des fonctionnalités de médias sociaux et analyser le trafic.

  • Stocker et/ou accéder à des informations sur votre appareil

    Des cookies, des identifiants d'appareils ou d'autres informations peuvent être stockés ou accessibles sur votre appareil aux fins indiquées ci-dessus.

  • Annonces et contenus personnalisés, mesure des annonces et des contenus, connaissance de l'audience et développement de produits

    Les annonces et le contenu peuvent être personnalisés en fonction d'un profil. D'autres données peuvent être ajoutées pour mieux personnaliser les annonces et le contenu. Les performances des publicités et du contenu peuvent être mesurées. Il est possible d'obtenir des informations sur le public qui a vu les publicités et le contenu. Ces données peuvent être utilisées pour développer ou améliorer l'expérience de l'utilisateur, les systèmes et les logiciels.

En cliquant sur "J'accepte", vous autorisez l'utilisation de cookies, des identifiants d'appareils, des balises web ou d'autres technologies similaires. Vos paramètres peuvent être modifiés dans le navigateur de votre appareil.

Dans certains cas, des intérêts légitimes peuvent être invoqués plutôt qu'un consentement. Vous pouvez en savoir plus à ce sujet dans notre Politique de confidentialité et de cookies.